When you browse on this site, cookies collect data to enhance your experience and personalize the content and advertising you see.
Visit our Privacy Policy to learn more. By continuing to use the site, you agree to this use of cookies and data.
  • En España
  • Lista de países
  • Para 7 días
  • Temperatura del agua
  • Mapa Satelital
  • El tiempo en el mapa
  • Informadores
  • user-avatar
    Iniciar sesión

    Tiempo cada hora Tucson

    Hoy, 22 Abril, Lunes

    Tiempo Temperatura Precipitaciones Viento Presión Humedad
    00:00 +21°C° 0 mm 2 mps 694 mmHg 24%
    01:00 +21°C° 0 mm 2 mps 694 mmHg 25%
    02:00 +21°C° 0 mm 1 mps 694 mmHg 27%
    03:00 +19°C° 0 mm 2 mps 694 mmHg 28%
    04:00 +19°C° 0 mm 2 mps 694 mmHg 29%
    05:00 +18°C° 0 mm 2 mps 694 mmHg 31%
    06:00 +19°C° 0 mm 2 mps 694 mmHg 30%
    07:00 +21°C° 0 mm 3 mps 694 mmHg 29%
    08:00 +22°C° 0 mm 4 mps 695 mmHg 28%
    09:00 +23°C° 0 mm 4 mps 695 mmHg 25%
    10:00 +25°C° 0 mm 4 mps 695 mmHg 23%
    11:00 +26°C° 0 mm 4 mps 695 mmHg 21%
    12:00 +27°C° 0 mm 4 mps 694 mmHg 19%
    13:00 +28°C° 0 mm 5 mps 694 mmHg 18%
    14:00 +29°C° 0 mm 5 mps 694 mmHg 16%
    15:00 +28°C° 0 mm 4 mps 693 mmHg 16%
    16:00 +28°C° 0 mm 4 mps 693 mmHg 16%
    17:00 +28°C° 0 mm 4 mps 692 mmHg 16%
    18:00 +27°C° 0.1 mm 4 mps 692 mmHg 19%
    19:00 +26°C° 0.1 mm 4 mps 692 mmHg 21%
    20:00 +25°C° 0.1 mm 4 mps 692 mmHg 23%
    21:00 +24°C° 0.1 mm 3 mps 693 mmHg 25%
    22:00 +22°C° 0.1 mm 3 mps 693 mmHg 28%
    23:00 +21°C° 0.1 mm 2 mps 693 mmHg 31%

    Mañana, 23 Abril, Martes

    Tiempo Temperatura Precipitaciones Viento Presión Humedad
    00:00 +20°C° 0.1 mm 2 mps 693 mmHg 33%
    01:00 +20°C° 0.1 mm 2 mps 693 mmHg 35%
    02:00 +19°C° 0.1 mm 2 mps 693 mmHg 37%
    03:00 +19°C° 0.1 mm 2 mps 693 mmHg 39%
    04:00 +18°C° 0.1 mm 2 mps 693 mmHg 41%
    05:00 +18°C° 0.1 mm 2 mps 693 mmHg 43%
    06:00 +18°C° 0 mm 2 mps 693 mmHg 41%
    07:00 +19°C° 0 mm 2 mps 694 mmHg 38%
    08:00 +20°C° 0 mm 2 mps 694 mmHg 35%
    09:00 +21°C° 0 mm 2 mps 694 mmHg 32%
    10:00 +23°C° 0 mm 2 mps 694 mmHg 28%
    11:00 +25°C° 0 mm 2 mps 695 mmHg 25%
    12:00 +26°C° 0 mm 3 mps 695 mmHg 24%
    13:00 +26°C° 0 mm 3 mps 694 mmHg 22%
    14:00 +27°C° 0 mm 4 mps 694 mmHg 20%
    15:00 +27°C° 0 mm 4 mps 694 mmHg 20%
    16:00 +28°C° 0 mm 4 mps 694 mmHg 20%
    17:00 +28°C° 0 mm 5 mps 694 mmHg 20%
    18:00 +27°C° 0.2 mm 4 mps 694 mmHg 24%
    19:00 +26°C° 0.2 mm 4 mps 694 mmHg 28%
    20:00 +25°C° 0.2 mm 3 mps 694 mmHg 32%
    21:00 +24°C° 0 mm 3 mps 694 mmHg 35%
    22:00 +22°C° 0 mm 3 mps 695 mmHg 37%
    23:00 +22°C° 0 mm 3 mps 695 mmHg 40%

    Pasado mañana, 24 Abril, Miércoles

    Tiempo Temperatura Precipitaciones Viento Presión Humedad
    00:00 +21°C° 0 mm 3 mps 695 mmHg 42%
    01:00 +21°C° 0 mm 3 mps 694 mmHg 44%
    02:00 +20°C° 0 mm 3 mps 694 mmHg 46%
    03:00 +20°C° 0 mm 2 mps 694 mmHg 48%
    04:00 +19°C° 0 mm 2 mps 694 mmHg 49%
    05:00 +20°C° 0 mm 1 mps 694 mmHg 51%
    06:00 +21°C° 0 mm 1 mps 695 mmHg 47%
    07:00 +22°C° 0 mm 1 mps 695 mmHg 43%
    08:00 +21°C° 0 mm 0 mps 695 mmHg 40%
    09:00 +24°C° 0 mm 1 mps 696 mmHg 35%
    10:00 +25°C° 0 mm 1 mps 696 mmHg 31%
    11:00 +27°C° 0 mm 1 mps 696 mmHg 26%
    12:00 +28°C° 0 mm 2 mps 696 mmHg 25%
    13:00 +29°C° 0 mm 3 mps 695 mmHg 23%
    14:00 +30°C° 0 mm 3 mps 695 mmHg 21%
    15:00 +30°C° 0 mm 3 mps 695 mmHg 21%
    16:00 +31°C° 0 mm 3 mps 694 mmHg 20%
    17:00 +32°C° 0 mm 4 mps 694 mmHg 19%
    18:00 +30°C° 0 mm 3 mps 694 mmHg 21%
    19:00 +29°C° 0 mm 2 mps 695 mmHg 22%
    20:00 +28°C° 0 mm 2 mps 695 mmHg 24%
    21:00 +27°C° 0 mm 1 mps 695 mmHg 26%
    22:00 +26°C° 0 mm 1 mps 696 mmHg 28%
    23:00 +24°C° 0 mm 0 mps 696 mmHg 30%

    25 Abril, Jueves

    Tiempo Temperatura Precipitaciones Viento Presión Humedad
    00:00 +23°C° 0 mm 0 mps 696 mmHg 30%
    01:00 +25°C° 0 mm 1 mps 695 mmHg 30%
    02:00 +24°C° 0 mm 1 mps 695 mmHg 31%
    03:00 +24°C° 0 mm 1 mps 695 mmHg 31%
    04:00 +23°C° 0 mm 1 mps 695 mmHg 32%
    05:00 +22°C° 0 mm 1 mps 695 mmHg 33%
    06:00 +24°C° 0 mm 1 mps 696 mmHg 30%
    07:00 +25°C° 0 mm 1 mps 697 mmHg 27%
    08:00 +27°C° 0 mm 1 mps 697 mmHg 24%
    09:00 +28°C° 0 mm 1 mps 698 mmHg 21%
    10:00 +29°C° 0 mm 2 mps 698 mmHg 18%
    11:00 +31°C° 0 mm 2 mps 698 mmHg 15%
    12:00 +32°C° 0 mm 2 mps 697 mmHg 14%
    13:00 +34°C° 0 mm 2 mps 697 mmHg 14%
    14:00 +34°C° 0 mm 3 mps 697 mmHg 13%
    15:00 +34°C° 0 mm 3 mps 696 mmHg 13%
    16:00 +35°C° 0 mm 3 mps 696 mmHg 13%
    17:00 +35°C° 0 mm 2 mps 696 mmHg 12%
    18:00 +32°C° 0 mm 2 mps 696 mmHg 14%
    19:00 +31°C° 0 mm 1 mps 696 mmHg 16%
    20:00 +30°C° 0 mm 1 mps 697 mmHg 18%
    21:00 +29°C° 0 mm 1 mps 697 mmHg 19%
    22:00 +28°C° 0 mm 1 mps 697 mmHg 20%
    23:00 +27°C° 0 mm 1 mps 697 mmHg 21%

    26 Abril, Viernes

    Tiempo Temperatura Precipitaciones Viento Presión Humedad
    00:00 +27°C° 0 mm 1 mps 697 mmHg 21%
    01:00 +26°C° 0 mm 1 mps 696 mmHg 22%
    02:00 +25°C° 0 mm 1 mps 696 mmHg 23%
    03:00 +25°C° 0 mm 1 mps 696 mmHg 25%
    04:00 +22°C° 0 mm 0 mps 696 mmHg 26%
    05:00 +21°C° 0 mm 0 mps 696 mmHg 28%
    06:00 +25°C° 0 mm 1 mps 697 mmHg 25%
    07:00 +27°C° 0 mm 1 mps 697 mmHg 21%
    08:00 +29°C° 0 mm 1 mps 698 mmHg 18%
    09:00 +30°C° 0 mm 1 mps 698 mmHg 16%
    10:00 +32°C° 0 mm 1 mps 698 mmHg 15%
    11:00 +34°C° 0 mm 2 mps 698 mmHg 14%
    12:00 +35°C° 0 mm 2 mps 698 mmHg 13%
    13:00 +36°C° 0 mm 2 mps 697 mmHg 12%
    14:00 +37°C° 0 mm 2 mps 697 mmHg 12%
    15:00 +37°C° 0 mm 3 mps 696 mmHg 12%
    16:00 +37°C° 0 mm 3 mps 696 mmHg 12%
    17:00 +37°C° 0 mm 3 mps 696 mmHg 12%
    18:00 +36°C° 0 mm 4 mps 696 mmHg 13%
    19:00 +34°C° 0 mm 4 mps 696 mmHg 14%
    20:00 +33°C° 0 mm 4 mps 696 mmHg 15%
    21:00 +32°C° 0 mm 4 mps 696 mmHg 16%
    22:00 +29°C° 0 mm 3 mps 696 mmHg 18%
    23:00 +28°C° 0 mm 2 mps 696 mmHg 19%

    27 Abril, Sábado

    Tiempo Temperatura Precipitaciones Viento Presión Humedad
    00:00 +27°C° 0 mm 2 mps 696 mmHg 21%
    01:00 +26°C° 0 mm 1 mps 695 mmHg 23%
    02:00 +23°C° 0 mm 0 mps 695 mmHg 25%
    03:00 +23°C° 0 mm 0 mps 695 mmHg 26%
    04:00 +22°C° 0 mm 0 mps 695 mmHg 27%
    05:00 +22°C° 0 mm 0 mps 695 mmHg 28%
    06:00 +23°C° 0 mm 0 mps 695 mmHg 24%
    07:00 +27°C° 0 mm 1 mps 696 mmHg 21%
    08:00 +28°C° 0 mm 1 mps 696 mmHg 18%
    09:00 +30°C° 0 mm 1 mps 696 mmHg 17%
    10:00 +31°C° 0 mm 1 mps 696 mmHg 15%
    11:00 +30°C° 0 mm 0 mps 696 mmHg 14%
    12:00 +33°C° 0 mm 1 mps 696 mmHg 13%
    13:00 +33°C° 0 mm 1 mps 695 mmHg 12%
    14:00 +35°C° 0 mm 2 mps 695 mmHg 11%
    15:00 +35°C° 0 mm 2 mps 695 mmHg 11%
    16:00 +35°C° 0 mm 2 mps 694 mmHg 10%
    17:00 +36°C° 0 mm 2 mps 694 mmHg 10%
    18:00 +34°C° 0 mm 2 mps 694 mmHg 11%
    19:00 +32°C° 0 mm 2 mps 694 mmHg 11%
    20:00 +31°C° 0 mm 2 mps 695 mmHg 12%
    21:00 +30°C° 0 mm 3 mps 695 mmHg 13%
    22:00 +29°C° 0 mm 3 mps 695 mmHg 14%
    23:00 +28°C° 0 mm 3 mps 695 mmHg 15%
    Mostrar más